[[{"header":{"parameterUnit":"m.s-1","parameterCategory":1,"la1":30.2991,"la2":30.254,"lo1":-89.0895,"lo2":-89.0444,"dy":0.0017,"dx":0.0017,"nx":28,"ny":28,"refTime":"2024-07-23T03:00:00:Z","depth":0,"parameterNumber":2,"parameterNumberName":"U-component_of_WINDS"},"data":[0,0,0,0,0,0,0,0,0,0,0,0,0,0,0,0,0,0,0,0,0,0,0,0,0,0,0,0,0,0,0,0,0,0,0,0,0,0,0,0,0,0,0,0,0,0,0,0,0,0,0,0,0,0,0,0,0,0,-0.8778,-0.8776,0,-0.8603,-0.8601,-0.8599,-0.849,-0.8489,-0.8489,-0.8488,-0.8307,-0.8303,-0.8299,0,0,0,0,0,0,0,0,0,0,0,0,0,-0.9016,-0.9013,-0.8779,-0.8776,-0.8774,-0.8604,-0.8601,-0.8599,-0.849,-0.8489,-0.8488,-0.8488,-0.8308,-0.8303,-0.8298,0,0,0,0,0,0,0,0,0,0,0,0,0,-0.8885,-0.9011,-0.8779,-0.8699,-0.869,-0.8604,-0.8601,-0.8598,-0.849,-0.8489,-0.8488,-0.8487,-0.831,-0.8304,-0.8298,-0.8276,0,0,-0.8278,-0.8275,0,0,0,0,0,0,0,0,-0.8892,-0.8876,-0.8713,-0.8705,-0.8694,-0.8567,-0.8619,-0.849,-0.849,-0.8566,-0.8488,-0.8487,-0.8394,-0.8381,-0.835,-0.8268,-0.826,-0.8278,-0.8274,-0.8271,-0.8269,0,0,0,0,0,0,0,-0.8901,-0.8883,-0.8709,-0.8711,-0.8699,-0.8672,-0.8652,-0.8594,-0.8487,-0.8559,-0.8551,-0.8532,-0.8389,-0.8357,-0.8345,-0.8258,-0.8278,-0.8272,-0.8268,-0.8266,-0.8148,-0.8149,0,0,0,0,0,0,-0.8923,-0.8891,-0.8715,-0.8704,-0.8793,-0.8668,-0.8646,-0.8609,-0.8488,-0.8468,-0.8533,-0.8527,-0.8368,-0.8353,-0.8338,-0.8304,-0.8271,-0.8265,-0.8261,-0.8147,-0.8148,-0.8149,0,0,0,0,0,0,-0.8929,-0.8909,-0.8722,-0.8795,-0.8769,-0.8665,-0.8624,-0.8606,-0.8573,-0.8468,-0.8448,-0.8519,-0.8366,-0.8347,-0.8292,-0.8297,-0.8262,-0.8256,-0.8147,-0.8148,-0.8149,-0.8238,0,0,0,0,0,0,-0.8936,-0.8911,-0.8903,-0.8796,-0.8766,-0.868,-0.8625,-0.8603,-0.8563,-0.8554,-0.845,-0.8431,-0.8364,-0.8303,-0.8286,-0.8287,-0.8251,-0.8146,-0.8147,-0.8148,-0.8234,-0.8242,-0.8248,0,0,0,0,0,-0.8945,-0.8934,-0.8903,-0.8882,-0.8753,-0.868,-0.8663,-0.8586,-0.8564,-0.8554,-0.8486,-0.8435,-0.8299,-0.8298,-0.8278,-0.8278,-0.8145,-0.8147,-0.8148,-0.8231,-0.824,-0.8248,0,0,0,0,0,0,-0.9044,-0.8919,-0.8882,-0.8837,-0.877,-0.8662,-0.8647,-0.8599,-0.8537,-0.8531,-0.8438,-0.8415,-0.837,-0.8318,-0.8319,-0.825,-0.8216,-0.8214,-0.8285,-0.8294,-0.8301,-0.8313,-0.8246,0,0,0,0,0,-0.9061,-0.9013,-0.8906,-0.8876,-0.8845,-0.8752,-0.8717,-0.8664,-0.8591,-0.8562,-0.849,-0.842,-0.8361,-0.8325,-0.8265,-0.8226,-0.8201,-0.8216,-0.8224,-0.823,-0.8229,-0.8203,-0.8208,-0.8154,-0.8154,-0.8154,0,0,-0.9094,-0.902,-0.8995,-0.8894,-0.8836,-0.8788,-0.8729,-0.868,-0.8643,-0.8554,-0.8498,-0.8443,-0.8359,-0.8312,-0.8288,-0.8268,-0.8238,-0.8232,-0.8238,-0.8233,-0.8205,-0.821,-0.8215,-0.8155,-0.8155,-0.8155,0,0,-0.913,-0.907,-0.9038,-0.8981,-0.8894,-0.8833,-0.8826,-0.8724,-0.8684,-0.8627,-0.8559,-0.8513,-0.8415,-0.8357,-0.8315,-0.8331,-0.8281,-0.8314,-0.8351,-0.8327,-0.8331,-0.8335,-0.8339,-0.8342,-0.8313,-0.8314,-0.8314,0,-0.9183,-0.9108,-0.9028,-0.8983,-0.894,-0.8858,-0.8825,-0.8773,-0.8672,-0.8643,-0.8623,-0.8497,-0.8435,-0.8373,-0.8377,-0.8346,-0.8333,-0.8325,-0.8338,-0.834,-0.8342,-0.8345,-0.8347,-0.8318,-0.8317,-0.8317,-0.8317,0,-0.9176,-0.9126,-0.911,-0.9014,-0.8969,-0.8931,-0.8844,-0.8809,-0.876,-0.8701,-0.8642,-0.8565,-0.8488,-0.847,-0.8421,-0.84,-0.839,-0.8355,-0.8319,-0.8353,-0.8354,-0.8354,-0.8324,-0.8323,-0.8321,-0.832,0,0,-0.9269,-0.9129,-0.9125,-0.908,-0.8978,-0.8937,-0.8895,-0.882,-0.8791,-0.8723,-0.8684,-0.8603,-0.857,-0.8522,-0.8467,-0.8446,-0.8462,-0.8412,-0.8409,-0.8423,-0.8432,-0.8459,-0.8462,-0.8429,-0.8429,-0.8429,-0.8439,0,-0.9289,-0.9209,-0.9136,-0.9082,-0.9033,-0.8955,-0.8917,-0.8851,-0.8794,-0.8744,-0.8682,-0.8625,-0.8586,-0.8556,-0.8533,-0.8465,-0.8462,-0.8463,-0.839,-0.8389,-0.8413,-0.8462,-0.849,-0.8504,-0.8439,-0.8439,-0.8439,0,-0.9302,-0.9238,-0.918,-0.9082,-0.9059,-0.9027,-0.8952,-0.8906,-0.8828,-0.8788,-0.8736,-0.8678,-0.8628,-0.8598,-0.8528,-0.8531,-0.8497,-0.8459,-0.8458,-0.8447,-0.8415,-0.8451,-0.8506,-0.8508,-0.8439,-0.8439,-0.8439,0,-0.9374,-0.9274,-0.9225,-0.9189,-0.9075,-0.9054,-0.9005,-0.8927,-0.8886,-0.8821,-0.8793,-0.8724,-0.8685,-0.8631,-0.8555,-0.8541,-0.8493,-0.8457,-0.8457,-0.8459,-0.845,-0.8451,-0.8499,-0.8431,-0.8431,-0.8431,-0.8431,0,-0.9403,-0.937,-0.9256,-0.9226,-0.9187,-0.9103,-0.9066,-0.901,-0.8941,-0.8898,-0.8827,-0.8788,-0.8691,-0.864,-0.8581,-0.8531,-0.8514,-0.848,-0.8464,-0.8485,-0.849,-0.8461,-0.8457,-0.8431,-0.8431,-0.8431,-0.8431,0,-0.9477,-0.9399,-0.9341,-0.9237,-0.9211,-0.9186,-0.9097,-0.9064,-0.9004,-0.8951,-0.8934,-0.8839,-0.8776,-0.8695,-0.8607,-0.8567,-0.8523,-0.85,-0.855,-0.854,-0.8545,-0.8545,-0.8574,-0.8573,-0.8508,-0.8509,-0.851,0,-0.95,-0.9473,-0.9367,-0.9333,-0.9287,-0.9234,-0.9192,-0.9109,-0.9068,-0.8978,-0.8956,-0.8888,-0.8828,-0.8731,-0.8654,-0.8585,-0.8559,-0.8574,-0.8548,-0.857,-0.8557,-0.8559,-0.8556,-0.858,-0.8581,-0.8582,-0.8583,0,-0.955,-0.9512,-0.9456,-0.9385,-0.9338,-0.9278,-0.9215,-0.9192,-0.9095,-0.9053,-0.8988,-0.8942,-0.8852,-0.8784,-0.8706,-0.8654,-0.8602,-0.8592,-0.8588,-0.8609,-0.8638,-0.8621,-0.8566,-0.8591,-0.859,-0.859,-0.8589,-0.8589,-0.9597,-0.9569,-0.949,-0.9429,-0.9373,-0.9316,-0.928,-0.9216,-0.916,-0.908,-0.9034,-0.897,-0.8893,-0.8782,-0.8733,-0.8681,-0.8662,-0.8657,-0.8655,-0.8655,-0.8661,-0.8648,-0.8667,-0.8666,-0.8666,-0.8666,-0.8666,0,-0.9642,-0.9587,-0.9532,-0.9446,-0.9398,-0.9354,-0.9282,-0.9245,-0.919,-0.9122,-0.9065,-0.899,-0.8924,-0.8842,-0.8771,-0.8745,-0.8719,-0.8729,-0.8729,-0.8718,-0.8683,-0.8693,-0.8751,-0.8751,-0.8751,-0.8751,-0.8751,-0.8751,-0.966,-0.9609,-0.9563,-0.9484,-0.9429,-0.9366,-0.9329,-0.9275,-0.9221,-0.914,-0.9085,-0.9033,-0.8958,-0.8881,-0.8818,-0.8796,-0.8772,-0.8789,-0.8759,-0.8728,-0.872,-0.8713,-0.8722,-0.8785,-0.8785,-0.8798,-0.8798,-0.8798]},{"header":{"parameterUnit":"m.s-1","parameterCategory":1,"la1":30.2991,"la2":30.254,"lo1":-89.0895,"lo2":-89.0444,"dy":0.0017,"dx":0.0017,"nx":28,"ny":28,"refTime":"2024-07-23T03:00:00:Z","depth":0,"parameterNumber":3,"parameterNumberName":"V-component_of_WINDS"},"data":[0,0,0,0,0,0,0,0,0,0,0,0,0,0,0,0,0,0,0,0,0,0,0,0,0,0,0,0,0,0,0,0,0,0,0,0,0,0,0,0,0,0,0,0,0,0,0,0,0,0,0,0,0,0,0,0,0,0,0.9806,0.9807,0,0.9908,0.991,0.9911,0.9951,0.9951,0.995,0.995,1.0053,1.0056,1.0059,0,0,0,0,0,0,0,0,0,0,0,0,0,0.9642,0.9645,0.9806,0.9807,0.9808,0.9908,0.991,0.9911,0.9951,0.9951,0.995,0.995,1.0052,1.0056,1.006,0,0,0,0,0,0,0,0,0,0,0,0,0,0.9726,0.9646,0.9806,0.9841,0.9845,0.9908,0.991,0.9911,0.9951,0.9951,0.995,0.995,1.0051,1.0056,1.006,1.0096,0,0,1.0074,1.0076,0,0,0,0,0,0,0,0,0.9721,0.9732,0.9834,0.9838,0.9843,0.9917,0.989,0.9973,0.9951,0.9911,0.995,0.995,1.0008,1.0016,1.0036,1.0101,1.0105,1.0074,1.0077,1.0079,1.008,0,0,0,0,0,0,0,0.9715,0.9728,0.9846,0.9836,0.9841,0.985,0.9862,0.9906,0.996,0.9914,0.9917,0.9929,1.001,1.0032,1.0039,1.0107,1.0074,1.0078,1.0081,1.0083,1.0203,1.0204,0,0,0,0,0,0,0.9704,0.9723,0.9843,0.9849,0.978,0.9853,0.9866,0.9893,0.996,0.997,0.9929,0.993,1.0024,1.0034,1.0043,1.0088,1.0079,1.0083,1.0086,1.0203,1.0204,1.0204,0,0,0,0,0,0,0.97,0.9714,0.9839,0.9787,0.9803,0.9857,0.9887,0.9896,0.9917,0.9971,0.9981,0.9941,1.0024,1.0036,1.0082,1.0092,1.0085,1.0089,1.0202,1.0203,1.0204,1.0179,0,0,0,0,0,0,0.9695,0.9713,0.9728,0.9787,0.9806,0.9877,0.9887,0.9898,0.9925,0.9927,0.9985,0.9994,1.0025,1.0075,1.0086,1.0098,1.0093,1.0202,1.0203,1.0204,1.0179,1.0179,1.0178,0,0,0,0,0,0.9689,0.9717,0.9728,0.9743,0.9826,0.9878,0.9889,0.9924,0.9925,0.994,0.9975,0.9992,1.0089,1.0079,1.0093,1.0106,1.0201,1.0202,1.0203,1.0179,1.0179,1.0178,0,0,0,0,0,0,0.9657,0.9725,0.9739,0.9786,0.9826,0.9885,0.9905,0.9923,0.9963,0.9963,1.0005,1.0017,1.0059,1.0087,1.0075,1.0143,1.0146,1.015,1.0123,1.0123,1.0123,1.0115,1.0096,0,0,0,0,0,0.9655,0.9693,0.975,0.9786,0.9805,0.9851,0.9875,0.9899,0.9942,0.9959,0.9997,1.0037,1.0076,1.0101,1.0141,1.0183,1.0196,1.0198,1.0198,1.0197,1.02,1.0223,1.0225,1.0208,1.0208,1.0208,0,0,0.9653,0.9694,0.9715,0.9781,0.9814,0.9851,0.9865,0.9904,0.9931,0.9964,1.001,1.0039,1.0086,1.013,1.0151,1.0154,1.0208,1.0199,1.0198,1.0201,1.0225,1.0226,1.0228,1.0209,1.0209,1.0208,0,0,0.9666,0.9702,0.9735,0.9768,0.9819,0.9849,0.9857,0.9913,0.9933,0.9979,1.0005,1.0037,1.0104,1.0137,1.0162,1.0185,1.0202,1.0197,1.0195,1.0217,1.0219,1.022,1.0228,1.023,1.0199,1.0199,1.0199,0,0.9656,0.9713,0.975,0.9787,0.9814,0.9846,0.9879,0.9909,0.997,0.9987,0.999,1.0074,1.0108,1.0159,1.0165,1.0185,1.0194,1.0191,1.0216,1.0217,1.0219,1.0227,1.023,1.0198,1.0198,1.0198,1.0199,0,0.9697,0.9736,0.9757,0.9815,0.9844,0.9879,0.992,0.9946,0.9966,0.9995,1.0041,1.0083,1.0131,1.0144,1.0165,1.0198,1.0198,1.0208,1.0212,1.0219,1.0227,1.023,1.0197,1.0197,1.0197,1.0198,0,0,0.9694,0.9771,0.9778,0.9804,0.9861,0.9892,0.9927,0.9974,0.9994,1.0034,1.0064,1.012,1.0128,1.0157,1.0181,1.02,1.0215,1.0207,1.0209,1.0207,1.0253,1.0245,1.0248,1.0226,1.0227,1.0228,1.0249,0,0.9715,0.9781,0.9814,0.9865,0.9901,0.993,0.9961,0.9999,1.0026,1.006,1.0091,1.0129,1.0138,1.0155,1.0176,1.0209,1.0224,1.0208,1.0254,1.0255,1.0241,1.0252,1.0245,1.0263,1.0252,1.0252,1.0253,0,0.9748,0.9788,0.9842,0.9894,0.991,0.9937,0.9982,1.0014,1.0057,1.0076,1.0107,1.013,1.0167,1.0168,1.022,1.0207,1.0228,1.0247,1.0248,1.0254,1.0255,1.0258,1.0269,1.0272,1.0258,1.0258,1.0257,0,0.9739,0.9806,0.9847,0.9869,0.993,0.9948,0.9975,1.0017,1.0043,1.0082,1.0098,1.0141,1.0164,1.0195,1.0229,1.0227,1.0277,1.0281,1.0293,1.0292,1.0302,1.0301,1.0317,1.0315,1.0315,1.0315,1.0315,0,0.9759,0.979,0.9844,0.9869,0.9905,0.9943,0.9977,1.0006,1.0043,1.0073,1.0101,1.0129,1.0172,1.0204,1.0231,1.0269,1.0279,1.0294,1.0301,1.0292,1.029,1.0306,1.0306,1.0316,1.0316,1.0316,1.0316,0,0.9755,0.9792,0.9839,0.9893,0.9907,0.9931,0.9978,1.0002,1.0031,1.0069,1.008,1.0125,1.0165,1.0202,1.0255,1.0272,1.031,1.0319,1.0296,1.03,1.0309,1.0307,1.0336,1.0341,1.0336,1.0336,1.0336,0,0.9765,0.979,0.9847,0.9869,0.9895,0.9931,0.9957,0.9994,1.002,1.007,1.0088,1.013,1.0166,1.0228,1.0265,1.0305,1.0315,1.0322,1.0321,1.031,1.0314,1.0312,1.0314,1.0321,1.0321,1.0321,1.0321,0,0.9778,0.9795,0.9832,0.9874,0.9904,0.994,0.9976,0.9993,1.0036,1.0064,1.0105,1.0132,1.0186,1.0227,1.0271,1.0297,1.0316,1.0321,1.0325,1.0316,1.0302,1.0309,1.0294,1.032,1.032,1.032,1.032,1.032,0.9782,0.9805,0.9848,0.9887,0.9918,0.9951,0.9977,1.0009,1.0044,1.0091,1.011,1.0152,1.0192,1.0254,1.028,1.0312,1.0316,1.0323,1.0325,1.0326,1.0324,1.0297,1.032,1.032,1.032,1.032,1.032,0,0.9796,0.9824,0.986,0.991,0.9941,0.9956,0.9996,1.002,1.0057,1.0093,1.0127,1.0174,1.0213,1.0253,1.0294,1.0312,1.0322,1.0322,1.0321,1.0326,1.0318,1.031,1.0313,1.0313,1.0313,1.0313,1.0313,1.0313,0.9806,0.9846,0.9868,0.9923,0.9952,0.9993,1.0014,1.0044,1.0074,1.0124,1.0157,1.0183,1.022,1.0264,1.0301,1.0311,1.0325,1.0323,1.0335,1.0327,1.0327,1.0327,1.032,1.0325,1.0325,1.0341,1.0341,1.0341]}]]